This is the latest recevied weather packets stored in our database for station/object SQ7FJB-10. If no packets are shown the sender has not sent any weather packets the latest 10 day(s).
| Time | Temp. | Humidity | Pressure | Rain* | Wind** | Luminosity | Snow |
|---|---|---|---|---|---|---|---|
| 1788152345 | 58° F | 87% | 991.7 mmHg | 0 in | - | - | - |
| 1788150532 | 57° F | 87% | 991.7 mmHg | 0 in | - | - | - |
| 1788148719 | 56° F | 89% | 991.7 mmHg | 0 in | - | - | - |
| 1788146894 | 56° F | 88% | 991.7 mmHg | 0 in | - | - | - |
| 1788145082 | 57° F | 88% | 991.7 mmHg | 0 in | - | - | - |
| 1788143269 | 58° F | 86% | 991.7 mmHg | 0 in | - | - | - |
| 1788141469 | 58° F | 86% | 991.9 mmHg | 0 in | - | - | - |
| 1788139656 | 59° F | 84% | 992 mmHg | 0 in | - | - | - |
| 1788137845 | 60° F | 84% | 991.9 mmHg | 0 in | - | - | - |
| 1788136044 | 61° F | 81% | 992.1 mmHg | 0 in | - | - | - |
| 1788134232 | 61° F | 82% | 992.1 mmHg | 0 in | - | - | - |
| 1788132432 | 61° F | 82% | 992 mmHg | 0 in | - | - | - |
| 1788130620 | 62° F | 79% | 992.1 mmHg | 0 in | - | - | - |
| 1788128819 | 63° F | 77% | 992.1 mmHg | 0 in | - | - | - |
| 1788127007 | 63° F | 76% | 992.1 mmHg | 0 in | - | - | - |
| 1788125206 | 64° F | 75% | 992.2 mmHg | 0 in | - | - | - |
| 1788123394 | 65° F | 74% | 992 mmHg | 0 in | - | - | - |
| 1788121582 | 66° F | 71% | 992 mmHg | 0 in | - | - | - |
| 1788119781 | 66° F | 72% | 991.9 mmHg | 0 in | - | - | - |
| 1788117970 | 66° F | 68% | 991.8 mmHg | 0 in | - | - | - |
| 1788116169 | 66° F | 69% | 991.7 mmHg | 0 in | - | - | - |
| 1788114369 | 68° F | 66% | 991.7 mmHg | 0 in | - | - | - |
| 1788112557 | 70° F | 61% | 991.4 mmHg | 0 in | - | - | - |
| 1788110745 | 72° F | 57% | 991.2 mmHg | 0 in | - | - | - |
| 1788108932 | 75° F | 50% | 991.2 mmHg | 0 in | - | - | - |
* Rain latest hour (hover to see other rain measurements)
** Current wind speed in m/s (hover to see current wind gust speed)